EN

Hourly Weather Bolshoe Kozhuhovo

Today, 22 October, Thursday

Time Temperature Precipitation Wind Pressure Humidity
00:00 +2°C° 0.1 mm 3 mps 755 mmHg 95%
01:00 +2°C° 0.1 mm 3 mps 755 mmHg 94%
02:00 +3°C° 0.1 mm 2 mps 754 mmHg 93%
03:00 +3°C° 0.1 mm 2 mps 754 mmHg 92%
04:00 +3°C° 0.1 mm 2 mps 754 mmHg 92%
05:00 +2°C° 0.1 mm 3 mps 754 mmHg 92%
06:00 +3°C° 0.1 mm 3 mps 754 mmHg 92%
07:00 +3°C° 0.1 mm 3 mps 754 mmHg 91%
08:00 +3°C° 0.1 mm 3 mps 754 mmHg 91%
09:00 +3°C° 0.1 mm 3 mps 754 mmHg 91%
10:00 +4°C° 0 mm 3 mps 754 mmHg 89%
11:00 +4°C° 0 mm 4 mps 754 mmHg 86%
12:00 +5°C° 0 mm 4 mps 754 mmHg 84%
13:00 +6°C° 0 mm 4 mps 753 mmHg 82%
14:00 +6°C° 0 mm 4 mps 753 mmHg 80%
15:00 +7°C° 0 mm 4 mps 753 mmHg 77%
16:00 +6°C° 0 mm 4 mps 752 mmHg 80%
17:00 +6°C° 0 mm 4 mps 751 mmHg 82%
18:00 +6°C° 0 mm 4 mps 751 mmHg 85%
19:00 +6°C° 0.3 mm 5 mps 750 mmHg 86%
20:00 +6°C° 0.3 mm 5 mps 750 mmHg 88%
21:00 +5°C° 0.3 mm 6 mps 749 mmHg 90%
22:00 +5°C° 0.4 mm 6 mps 748 mmHg 89%
23:00 +7°C° 0.4 mm 6 mps 748 mmHg 89%

Tomorrow, 23 October, Friday

Time Temperature Precipitation Wind Pressure Humidity
00:00 +7°C° 0.4 mm 5 mps 747 mmHg 89%
01:00 +7°C° 0 mm 5 mps 746 mmHg 88%
02:00 +7°C° 0 mm 6 mps 746 mmHg 86%
03:00 +7°C° 0 mm 6 mps 746 mmHg 85%
04:00 +7°C° 0 mm 6 mps 745 mmHg 86%
05:00 +8°C° 0 mm 6 mps 745 mmHg 88%
06:00 +8°C° 0 mm 6 mps 745 mmHg 89%
07:00 +9°C° 0 mm 6 mps 745 mmHg 86%
08:00 +10°C° 0 mm 7 mps 745 mmHg 84%
09:00 +11°C° 0 mm 7 mps 745 mmHg 82%
10:00 +11°C° 0 mm 7 mps 745 mmHg 79%
11:00 +12°C° 0 mm 7 mps 745 mmHg 77%
12:00 +12°C° 0 mm 7 mps 746 mmHg 74%
13:00 +12°C° 0 mm 7 mps 746 mmHg 75%
14:00 +12°C° 0 mm 7 mps 746 mmHg 76%
15:00 +11°C° 0 mm 7 mps 746 mmHg 76%
16:00 +11°C° 0 mm 6 mps 746 mmHg 79%
17:00 +10°C° 0 mm 5 mps 746 mmHg 82%
18:00 +11°C° 0 mm 3 mps 745 mmHg 85%
19:00 +11°C° 0 mm 4 mps 745 mmHg 86%
20:00 +11°C° 0 mm 4 mps 745 mmHg 87%
21:00 +11°C° 0 mm 4 mps 744 mmHg 88%
22:00 +10°C° 1.2 mm 5 mps 743 mmHg 90%
23:00 +10°C° 1.2 mm 5 mps 743 mmHg 91%

Day after tomorrow, 24 October, Saturday

Time Temperature Precipitation Wind Pressure Humidity
00:00 +10°C° 1.2 mm 6 mps 742 mmHg 93%
01:00 +10°C° 0.1 mm 6 mps 742 mmHg 91%
02:00 +10°C° 0.1 mm 6 mps 742 mmHg 89%
03:00 +10°C° 0.1 mm 6 mps 743 mmHg 87%
04:00 +9°C° 0 mm 6 mps 743 mmHg 89%
05:00 +9°C° 0 mm 6 mps 743 mmHg 90%
06:00 +8°C° 0 mm 5 mps 744 mmHg 91%
07:00 +8°C° 0 mm 5 mps 744 mmHg 89%
08:00 +8°C° 0 mm 6 mps 745 mmHg 87%
09:00 +8°C° 0 mm 6 mps 746 mmHg 85%
10:00 +9°C° 0 mm 5 mps 746 mmHg 80%
11:00 +10°C° 0 mm 5 mps 747 mmHg 75%
12:00 +12°C° 0 mm 4 mps 747 mmHg 70%
13:00 +12°C° 0 mm 4 mps 747 mmHg 68%
14:00 +12°C° 0 mm 4 mps 747 mmHg 67%
15:00 +12°C° 0 mm 3 mps 747 mmHg 66%
16:00 +11°C° 0 mm 3 mps 747 mmHg 70%
17:00 +10°C° 0 mm 3 mps 747 mmHg 74%
18:00 +9°C° 0 mm 3 mps 747 mmHg 78%
19:00 +9°C° 0 mm 3 mps 748 mmHg 80%
20:00 +9°C° 0 mm 2 mps 748 mmHg 81%
21:00 +9°C° 0 mm 2 mps 748 mmHg 82%
22:00 +8°C° 0 mm 2 mps 748 mmHg 84%
23:00 +8°C° 0 mm 2 mps 748 mmHg 85%

, 25 October, Sunday

Time Temperature Precipitation Wind Pressure Humidity
00:00 +8°C° 0 mm 2 mps 748 mmHg 87%
01:00 +8°C° 0 mm 2 mps 747 mmHg 88%
02:00 +7°C° 0 mm 2 mps 747 mmHg 89%
03:00 +7°C° 0 mm 2 mps 747 mmHg 90%
04:00 +8°C° 0 mm 1 mps 747 mmHg 90%
05:00 +8°C° 0 mm 1 mps 746 mmHg 90%
06:00 +8°C° 0 mm 1 mps 746 mmHg 91%
07:00 +8°C° 0.7 mm 1 mps 746 mmHg 92%
08:00 +8°C° 0.7 mm 1 mps 746 mmHg 93%
09:00 +8°C° 0.7 mm 1 mps 746 mmHg 95%
10:00 +8°C° 0.6 mm 1 mps 746 mmHg 94%
11:00 +8°C° 0.6 mm 2 mps 746 mmHg 93%
12:00 +8°C° 0.6 mm 2 mps 746 mmHg 92%
13:00 +8°C° 0.1 mm 3 mps 746 mmHg 88%
14:00 +7°C° 0.1 mm 4 mps 746 mmHg 85%
15:00 +8°C° 0.1 mm 4 mps 746 mmHg 82%
16:00 +7°C° 0.1 mm 4 mps 747 mmHg 83%
17:00 +7°C° 0.1 mm 4 mps 747 mmHg 85%
18:00 +7°C° 0.1 mm 4 mps 748 mmHg 87%
19:00 +6°C° 0 mm 4 mps 748 mmHg 89%
20:00 +6°C° 0 mm 4 mps 749 mmHg 90%
21:00 +5°C° 0 mm 4 mps 750 mmHg 92%
22:00 +5°C° 0 mm 3 mps 750 mmHg 93%
23:00 +4°C° 0 mm 3 mps 751 mmHg 93%

25 October, Sunday

Time Temperature Precipitation Wind Pressure Humidity
00:00 +8°C° 0 mm 2 mps 748 mmHg 87%
01:00 +8°C° 0 mm 2 mps 747 mmHg 88%
02:00 +7°C° 0 mm 2 mps 747 mmHg 89%
03:00 +7°C° 0 mm 2 mps 747 mmHg 90%
04:00 +8°C° 0 mm 1 mps 747 mmHg 90%
05:00 +8°C° 0 mm 1 mps 746 mmHg 90%
06:00 +8°C° 0 mm 1 mps 746 mmHg 91%
07:00 +8°C° 0.7 mm 1 mps 746 mmHg 92%
08:00 +8°C° 0.7 mm 1 mps 746 mmHg 93%
09:00 +8°C° 0.7 mm 1 mps 746 mmHg 95%
10:00 +8°C° 0.6 mm 1 mps 746 mmHg 94%
11:00 +8°C° 0.6 mm 2 mps 746 mmHg 93%
12:00 +8°C° 0.6 mm 2 mps 746 mmHg 92%
13:00 +8°C° 0.1 mm 3 mps 746 mmHg 88%
14:00 +7°C° 0.1 mm 4 mps 746 mmHg 85%
15:00 +8°C° 0.1 mm 4 mps 746 mmHg 82%
16:00 +7°C° 0.1 mm 4 mps 747 mmHg 83%
17:00 +7°C° 0.1 mm 4 mps 747 mmHg 85%
18:00 +7°C° 0.1 mm 4 mps 748 mmHg 87%
19:00 +6°C° 0 mm 4 mps 748 mmHg 89%
20:00 +6°C° 0 mm 4 mps 749 mmHg 90%
21:00 +5°C° 0 mm 4 mps 750 mmHg 92%
22:00 +5°C° 0 mm 3 mps 750 mmHg 93%
23:00 +4°C° 0 mm 3 mps 751 mmHg 93%

26 October, Monday

Time Temperature Precipitation Wind Pressure Humidity
00:00 +4°C° 0 mm 3 mps 751 mmHg 94%
01:00 +4°C° 0 mm 3 mps 752 mmHg 94%
02:00 +4°C° 0 mm 2 mps 752 mmHg 94%
03:00 +4°C° 0 mm 2 mps 753 mmHg 94%
04:00 +4°C° 0 mm 2 mps 753 mmHg 94%
05:00 +4°C° 0 mm 2 mps 754 mmHg 93%
06:00 +6°C° 0 mm 1 mps 754 mmHg 93%
07:00 +6°C° 0 mm 1 mps 755 mmHg 91%
08:00 +6°C° 0 mm 1 mps 755 mmHg 89%
09:00 +7°C° 0 mm 1 mps 756 mmHg 88%
10:00 +7°C° 0 mm 1 mps 756 mmHg 83%
11:00 +8°C° 0 mm 1 mps 757 mmHg 79%
12:00 +9°C° 0 mm 1 mps 757 mmHg 74%
13:00 +9°C° 0 mm 1 mps 757 mmHg 75%
14:00 +10°C° 0 mm 1 mps 757 mmHg 75%
15:00 +10°C° 0 mm 1 mps 757 mmHg 75%
16:00 +9°C° 0 mm 1 mps 758 mmHg 78%
17:00 +9°C° 0 mm 1 mps 758 mmHg 81%
18:00 +7°C° 0 mm 0 mps 758 mmHg 83%
19:00 +7°C° 0 mm 0 mps 758 mmHg 84%
20:00 +7°C° 0 mm 1 mps 759 mmHg 85%
21:00 +7°C° 0 mm 1 mps 759 mmHg 86%
22:00 +6°C° 0 mm 0 mps 759 mmHg 87%
23:00 +5°C° 0 mm 0 mps 759 mmHg 88%

27 October, Tuesday

Time Temperature Precipitation Wind Pressure Humidity
00:00 +5°C° 0 mm 0 mps 759 mmHg 89%
01:00 +5°C° 0 mm 0 mps 759 mmHg 89%
02:00 +4°C° 0 mm 0 mps 760 mmHg 90%
03:00 +4°C° 0 mm 0 mps 760 mmHg 90%
04:00 +4°C° 0 mm 0 mps 760 mmHg 90%
05:00 +4°C° 0 mm 0 mps 760 mmHg 90%
06:00 +4°C° 0 mm 0 mps 760 mmHg 91%
07:00 +4°C° 0 mm 0 mps 760 mmHg 89%
08:00 +5°C° 0 mm 0 mps 760 mmHg 87%
09:00 +6°C° 0 mm 1 mps 760 mmHg 85%
10:00 +8°C° 0 mm 1 mps 761 mmHg 80%
11:00 +9°C° 0 mm 1 mps 761 mmHg 75%
12:00 +10°C° 0 mm 1 mps 761 mmHg 70%
13:00 +9°C° 0 mm 2 mps 761 mmHg 69%
14:00 +9°C° 0 mm 2 mps 761 mmHg 68%
15:00 +9°C° 0 mm 2 mps 761 mmHg 67%
16:00 +9°C° 0 mm 2 mps 761 mmHg 70%
17:00 +8°C° 0 mm 2 mps 760 mmHg 73%
18:00 +7°C° 0 mm 2 mps 760 mmHg 76%
19:00 +7°C° 0 mm 2 mps 760 mmHg 77%
20:00 +7°C° 0 mm 2 mps 760 mmHg 77%
21:00 +7°C° 0 mm 2 mps 760 mmHg 78%
22:00 +7°C° 0 mm 2 mps 760 mmHg 81%
23:00 +6°C° 0 mm 2 mps 760 mmHg 83%
Show more